{"data":{"norad_id":69823,"intl_designator":"2026-154E","name":"STARLINK-37628","alt_names":[],"object_type":"PAYLOAD","status":"ACTIVE","operator":null,"country":"US","launch_date":"2026-07-05","launch_site_code":"AFETR","launch_vehicle":null,"mission":null,"orbit_class":"UNKNOWN","rcs_meters":null,"size_class":null,"mass_kg":null,"dimensions":null,"purposes":["comms"],"wikipedia_slug":null,"has_3d_model":false,"image_url":null,"decayed_at":null,"tle_current":{"epoch":"2026-09-20T04:14:21.252768Z","epoch_age_seconds":45727,"freshness":"FRESH","line1":"1 69823U 26154E   26263.17663487  .00015529  00000+0  46989-3 0  9997","line2":"2 69823  53.1586 333.5761 0001173  94.4788 265.6348 15.34392057 13184","mean_motion":15.34392057,"eccentricity":0.0001173,"inclination_deg":53.1586,"raan_deg":333.5761,"arg_perigee_deg":94.4788,"mean_anomaly_deg":265.6348,"bstar":0.00046989,"rev_number":1318,"period_min":93.848243897681,"perigee_km":461.92441524942,"apogee_km":463.5292819083,"semimajor_km":6840.8638485789,"source":"CELESTRAK","updated_at":"2026-09-20T09:00:44.291884Z"}}}